Temperature
19 19 19 19 18 18 18 18 18 18 18 18 18 18 18 18 17 17 17 17 17 17 17 17 16 16 16 16 16 16 16 16 16 16 16 16 16 16 16 16 16 16 16
18 19 18 18 18 18 18 18 18 18 18 18 18 18 18 18 17 17 17 17 17 17 17 16 16 16 16 16 16 16 16 16 16 16 16 16 16 16 16 16 16 16 16
19 19 19 18 18 18 18 18 18 18 18 18 18 18 17 17 17 17 17 17 17 17 16 16 16 16 16 16 15 16 16 16 16 16 16 16 16 16 16 16 16 16 16
19 19 19 18 18 18 18 18 18 18 18 18 18 18 18 18 18 18 17 17 17 16 16 16 16 16 15 15 15 15 15 15 16 16 16 16 16 16 16 16 16 16 16
19 19 19 19 18 18 18 18 18 18 18 18 18 18 18 18 18 17 17 17 16 16 16 16 16 15 15 15 15 15 15 15 15 15 15 16 16 16 16 16 16 16 16
19 19 19 19 18 18 18 18 18 18 18 18 18 18 18 18 17 17 17 17 17 16 16 16 15 15 15 15 15 15 15 15 15 15 15 15 15 15 16 16 15 16 16
19 19 19 18 18 18 18 18 18 18 18 18 18 18 18 17 18 17 17 17 17 17 16 16 16 15 15 15 15 15 15 15 15 15 15 15 15 15 15 15 15 15 15
20 20 20 19 19 18 18 18 18 18 18 18 18 17 17 17 17 17 17 17 17 17 16 16 16 16 16 15 15 15 15 15 15 15 15 15 15 15 15 15 15 15 15
20 20 20 20 19 19 19 19 19 19 18 18 18 17 17 17 17 17 17 17 17 17 16 16 16 16 15 15 15 15 15 15 15 15 15 15 15 14 14 15 15 15 15
20 20 20 20 20 20 19 19 19 19 19 18 18 18 18 17 17 17 17 17 17 17 16 16 16 16 15 15 15 15 15 15 15 15 15 14 14 14 14 14 14 14 14
20 20 20 20 20 20 19 19 19 19 18 18 18 18 18 18 17 17 17 17 17 17 16 16 16 16 16 15 15 15 15 15 15 15 15 14 14 14 14 14 14 14 14
20 20 20 20 20 20 19 19 19 19 19 18 18 18 18 18 17 17 17 17 17 17 16 16 16 16 16 16 15 15 15 15 15 15 15 14 14 14 14 14 14 14 14
20 20 20 20 20 20 20 19 19 19 19 19 18 18 18 18 18 18 17 17 17 17 16 16 16 16 16 16 16 15 15 15 15 15 15 15 14 14 14 14 14 14 14
20 20 20 20 20 20 20 20 19 19 19 19 19 18 18 18 18 18 17 17 17 17 16 16 16 16 16 16 16 15 15 15 15 15 15 15 14 14 14 14 14 14 14
20 20 20 20 20 20 20 20 20 19 19 19 19 19 19 18 18 18 17 17 17 17 17 16 16 16 16 16 16 15 15 15 15 15 15 15 15 14 14 14 14 14 14
19 20 20 20 20 20 20 20 20 19 19 19 19 19 19 18 18 18 17 17 17 17 16 16 16 16 16 16 16 15 15 15 15 15 15 15 14 14 14 14 14 14 14
19 19 19 19 20 20 20 20 19 19 19 19 19 19 18 18 18 18 17 17 17 17 16 16 16 16 16 16 15 15 15 15 15 15 15 15 15 14 14 14 14 14 14
19 19 19 19 19 20 20 19 19 19 19 18 18 18 18 18 18 17 17 17 17 17 16 16 16 16 16 15 15 15 15 15 15 15 15 14 15 14 14 14 14 14 14
18 18 18 19 19 19 19 19 18 18 18 18 18 17 17 17 17 17 17 17 16 16 16 16 16 16 15 15 15 14 14 14 14 14 14 14 14 14 14 13 13 13 14
16 17 17 18 18 17 17 17 17 17 17 17 17 16 16 16 16 16 16 16 16 16 16 15 15 15 15 15 14 14 14 14 14 14 14 14 14 14 13 13 13 13 13
16 16 16 16 16 16 17 17 16 16 16 16 16 16 16 16 16 15 15 15 15 15 15 15 15 14 14 14 14 13 13 13 13 13 13 13 13 13 13 12 12 12 12
15 15 15 15 15 15 16 15 15 15 15 15 15 15 15 15 15 15 15 14 14 14 14 14 14 13 13 13 13 13 13 13 13 13 13 13 12 12 12 12 12 12 12
14 14 14 14 14 14 15 14 14 14 14 14 14 14 14 14 14 14 14 14 13 13 13 13 13 13 13 13 12 12 12 12 12 12 12 12 12 12 11 11 11 11 11
14 14 14 14 13 13 13 13 13 13 13 13 13 13 13 13 13 13 13 13 13 13 13 13 12 12 12 12 12 12 12 11 11 11 11 11 11 11 11 11 11 11 10
13 13 13 13 12 12 12 12 12 13 13 12 12 12 12 12 12 12 12 12 12 12 12 12 12 11 11 11 11 11 11 11 11 10 10 10 10 10 10 10 10 10 10
12 12 12 12 12 12 11 11 11 12 12 12 12 11 11 12 12 12 12 11 11 11 11 11 11 11 11 11 11 10 10 10 10 10 10 10 10 9 9 9 9 9 9
Wind_Speed
8 8 9 13 14 13 13 13 12 10 9 7 7 7 6 5 5 5 9 10 9 10 8 4 4 4 4 3 3 2 3 2 1 3 3 4 3 1 0 1 2 2 5
8 9 9 11 13 13 13 13 13 11 10 8 6 5 5 4 4 4 6 9 9 9 8 6 4 4 4 4 3 3 2 2 2 3 3 3 4 4 2 0 2 2 3
14 12 11 11 12 13 15 14 13 11 10 8 6 5 4 4 3 4 4 5 9 9 8 7 5 4 4 4 3 3 4 2 2 2 4 4 2 2 4 3 1 0 1
12 12 13 13 13 13 13 12 12 11 10 9 9 10 7 6 5 5 4 4 7 8 9 8 7 5 4 4 3 4 3 4 2 2 2 2 4 3 1 3 3 2 1
13 13 13 15 14 13 13 12 11 10 9 10 10 10 6 5 4 5 6 5 4 6 8 8 7 5 4 4 4 4 4 3 3 1 1 2 3 2 3 1 3 4 3
12 12 12 12 11 11 11 12 12 10 10 10 10 9 9 8 8 7 6 5 3 3 5 7 6 5 4 5 4 4 5 3 3 2 2 2 2 1 3 2 1 2 3
13 13 13 13 13 13 13 12 13 11 10 10 10 9 9 9 10 9 8 6 4 4 5 5 5 5 5 5 5 4 4 4 3 3 2 2 2 2 3 3 1 1 3
12 14 14 14 14 15 14 14 13 11 11 11 10 9 9 7 7 8 8 8 6 6 7 7 7 7 7 6 5 4 4 3 3 3 3 2 1 2 3 4 3 1 3
12 14 14 14 14 14 14 14 14 12 12 12 10 9 9 9 8 8 8 7 6 7 8 8 7 7 7 6 6 4 4 4 3 3 3 2 1 1 2 3 4 4 1
10 13 14 14 14 14 14 13 13 13 11 11 11 10 9 9 9 8 9 8 8 7 8 9 8 8 7 7 6 4 4 5 4 3 3 2 2 1 1 2 2 3 4
10 11 11 12 12 12 12 12 12 11 11 11 10 10 9 9 8 8 9 8 7 8 9 10 9 8 8 7 7 6 6 6 5 4 5 5 3 2 2 2 2 2 3
9 10 10 10 9 10 11 12 13 12 12 11 10 10 9 9 9 9 9 8 9 9 10 10 10 10 9 9 9 8 7 7 7 7 6 6 4 5 3 3 3 3 3
8 9 9 11 11 11 11 11 12 12 12 11 11 10 10 10 10 9 9 8 9 9 9 10 11 10 10 10 10 9 8 8 8 8 8 7 7 6 5 5 4 4 3
7 8 9 10 10 10 10 11 11 11 11 10 11 12 11 11 10 9 9 9 9 9 9 10 10 10 9 10 10 9 9 8 8 8 8 8 8 8 8 6 6 5 4
5 7 8 9 9 9 9 10 10 10 11 11 12 12 10 9 8 8 8 9 9 10 9 9 9 9 9 9 10 10 10 9 8 8 8 9 10 12 10 7 7 7 5
4 5 6 7 9 10 10 10 10 10 10 11 11 9 8 8 8 8 8 8 9 8 9 9 9 9 8 10 13 10 8 8 9 9 8 8 9 12 14 14 13 11 9
3 4 4 5 6 7 8 9 9 8 8 8 8 7 8 9 9 10 9 9 10 9 8 9 8 8 8 10 11 12 8 8 8 8 8 8 8 9 7 10 13 13 15
6 4 3 3 3 4 5 5 5 6 6 5 4 4 5 6 6 6 7 7 6 7 8 8 8 8 9 11 12 13 9 8 9 8 8 8 7 6 7 7 7 8 10
8 6 5 6 6 5 5 7 6 6 5 4 3 3 4 4 3 4 5 5 5 6 7 7 8 8 8 10 11 10 5 6 7 6 6 7 7 9 9 7 8 9 9
10 9 9 10 10 7 7 10 8 7 6 4 3 3 3 3 3 3 3 3 3 5 5 5 5 6 6 8 11 10 5 5 5 5 5 8 9 9 8 7 7 9 10
11 11 12 12 9 8 10 11 9 7 4 4 4 4 3 2 2 2 2 2 2 2 2 3 3 4 4 6 9 10 6 6 5 5 5 5 7 8 8 8 7 11 10
11 11 12 11 9 8 10 11 8 5 5 6 6 6 4 3 2 2 1 1 2 2 2 1 1 1 1 2 4 7 8 6 5 6 5 5 7 9 10 9 11 14 11
10 9 11 11 10 9 9 9 6 5 6 7 6 5 5 5 4 3 2 2 1 1 1 2 1 0 1 1 0 2 4 6 5 5 7 8 9 10 9 11 13 10 7
10 9 11 12 10 9 9 8 6 6 7 7 5 5 5 5 4 3 3 2 1 1 2 1 1 0 0 0 0 0 1 3 4 4 6 8 9 8 9 9 8 6 6
8 8 9 9 8 8 9 8 8 8 8 7 6 5 4 4 4 3 2 2 0 2 2 2 2 2 1 3 3 1 0 1 1 2 2 3 3 4 5 5 6 6 5
8 8 8 8 7 8 8 7 7 8 8 7 6 5 4 3 3 3 3 4 2 1 1 2 3 2 3 4 3 2 2 2 2 1 2 4 5 5 6 6 6 5 6
Wind_Direction
170 162 160 161 161 163 159 156 155 157 152 148 148 149 151 152 150 157 152 147 143 137 129 122 121 113 116 125 117 99 75 48 56 62 28 4 5 13 199 178 159 176 186
161 169 166 166 166 166 165 162 163 166 166 164 156 149 146 152 155 153 148 153 150 145 139 135 136 125 117 107 96 95 90 37 59 105 86 33 1 353 1 316 173 162 168
173 174 173 174 173 172 169 171 169 169 169 159 140 131 112 108 120 141 150 161 154 150 145 143 137 133 130 131 122 112 113 92 26 83 133 133 196 309 335 341 345 151 165
177 177 176 175 180 179 171 168 167 168 168 160 158 157 156 160 172 167 164 160 154 149 148 147 144 141 135 139 135 115 112 113 72 14 43 135 152 142 355 332 335 322 244
178 176 177 178 178 174 171 170 168 169 168 168 166 162 159 161 152 149 154 157 152 155 153 150 145 144 141 144 132 114 107 112 119 104 71 63 61 88 130 281 322 333 316
177 175 175 169 171 171 171 169 170 173 172 171 168 166 166 161 154 160 167 169 162 162 161 154 150 152 148 149 146 134 126 122 116 109 106 119 112 121 129 154 276 299 303
175 174 173 172 173 174 174 173 173 176 176 174 175 175 174 169 170 172 176 174 173 181 186 165 161 161 161 156 146 142 143 139 133 133 129 130 145 155 143 135 159 323 312
177 178 179 178 178 179 177 176 179 179 178 179 179 179 178 177 179 180 178 183 187 191 185 176 174 172 166 161 152 150 160 151 150 146 142 134 139 143 152 152 140 70 342
182 183 181 180 180 181 183 184 183 182 183 183 179 182 180 180 180 182 181 185 190 192 185 181 178 174 170 165 157 165 176 164 167 168 161 160 185 150 149 150 149 145 154
189 186 184 184 185 186 186 185 185 186 185 183 184 189 185 183 182 181 186 190 192 190 180 182 180 176 176 173 167 172 182 174 182 182 174 183 196 170 144 146 150 149 159
191 186 185 186 184 184 184 187 187 184 185 185 185 184 185 185 181 186 191 191 190 185 182 183 181 181 182 179 177 186 184 187 198 196 191 207 203 198 196 161 147 157 156
181 175 176 176 177 181 185 189 187 186 188 186 184 187 185 184 186 192 195 189 187 185 184 181 182 188 189 186 185 194 192 194 201 204 198 211 208 207 209 195 197 198 190
177 175 173 176 180 182 186 186 188 190 188 184 186 191 191 191 196 198 195 189 186 185 185 182 187 193 193 193 196 197 198 201 205 205 203 209 201 211 213 209 212 217 212
169 174 177 179 180 180 181 183 186 188 186 186 190 197 200 201 202 199 196 194 190 188 191 192 194 195 196 198 201 201 204 206 208 209 210 210 204 210 211 214 215 214 218
149 164 175 180 177 176 181 184 189 189 188 188 197 203 203 202 201 200 202 199 196 197 195 196 200 200 199 204 202 205 208 209 215 217 216 217 215 214 211 213 212 208 216
140 147 155 166 174 178 184 186 188 189 185 191 199 199 195 198 202 204 206 204 203 201 195 199 200 202 211 212 206 203 208 209 215 223 227 230 229 230 228 227 218 206 211
121 132 146 167 178 182 183 186 189 185 181 189 194 197 195 200 207 208 205 210 210 203 199 201 198 201 207 201 204 208 204 209 216 220 224 236 235 230 233 240 240 232 228
77 81 93 122 133 138 142 144 145 149 156 169 175 176 181 190 194 195 203 208 206 200 203 206 205 205 212 208 209 210 206 213 219 217 218 224 236 233 229 238 247 246 243
72 66 69 83 82 89 104 103 101 112 125 137 157 167 161 165 183 204 210 207 200 202 207 204 208 210 218 215 216 212 210 223 229 228 228 226 234 242 237 237 250 261 264
70 66 62 65 66 65 82 86 84 83 86 96 120 127 134 154 181 207 211 203 190 200 201 206 210 210 217 217 215 209 212 228 239 240 240 237 239 247 243 234 241 258 266
72 72 70 66 60 65 82 82 75 71 72 80 81 83 95 128 164 187 194 172 167 173 195 206 217 219 222 226 219 207 208 224 236 243 246 242 240 245 247 239 237 250 261
72 71 73 66 53 58 79 79 69 54 56 63 65 62 58 58 67 81 87 126 152 161 189 192 206 208 203 202 215 212 215 222 231 247 250 245 254 259 261 256 253 260 266
77 72 75 69 55 49 62 70 53 54 63 61 58 57 55 50 54 68 64 52 98 157 172 151 144 99 62 65 126 207 224 237 239 255 265 275 278 281 274 266 268 271 260
78 76 76 71 58 48 52 53 43 53 64 60 47 44 49 41 37 48 61 75 75 96 103 119 141 144 1 341 1 295 255 257 258 272 287 293 289 279 270 276 278 264 252
79 78 80 76 65 53 49 44 45 53 57 52 45 40 39 42 38 32 35 55 72 148 144 165 170 162 199 247 219 194 259 292 274 302 305 300 299 297 292 288 283 277 273
81 78 75 74 66 60 51 40 43 53 55 46 37 35 32 31 35 34 19 16 16 17 101 185 186 208 215 220 212 218 233 236 213 177 278 282 281 279 280 281 282 277 273
Height
1492 1494 1496 1497 1500 1503 1508 1512 1516 1521 1526 1529 1532 1535 1538 1541 1543 1545 1547 1548 1550 1551 1552 1553 1554 1555 1556 1557 1558 1559 1560 1561 1562 1563 1564 1565 1566 1567 1567 1568 1568 1568 1569
1491 1493 1495 1497 1499 1501 1506 1511 1516 1520 1524 1527 1531 1534 1537 1540 1542 1544 1546 1547 1549 1550 1551 1552 1553 1554 1556 1556 1557 1559 1560 1561 1562 1563 1563 1564 1567 1566 1567 1567 1567 1568 1568
1488 1490 1493 1496 1498 1501 1505 1510 1514 1518 1522 1527 1530 1534 1536 1538 1540 1542 1544 1546 1548 1549 1550 1551 1553 1554 1555 1556 1557 1558 1559 1560 1561 1562 1563 1563 1564 1565 1566 1567 1567 1567 1567
1487 1488 1490 1493 1497 1499 1503 1508 1513 1517 1521 1525 1528 1531 1533 1535 1538 1540 1543 1545 1546 1548 1549 1551 1552 1553 1554 1555 1556 1557 1559 1560 1560 1561 1562 1563 1563 1564 1565 1566 1566 1567 1567
1485 1487 1488 1491 1495 1499 1503 1507 1512 1516 1520 1523 1526 1529 1532 1535 1537 1539 1541 1543 1545 1547 1548 1549 1551 1552 1553 1554 1555 1557 1558 1559 1560 1560 1561 1562 1562 1563 1564 1565 1566 1566 1566
1484 1486 1489 1491 1495 1499 1503 1507 1510 1514 1518 1521 1524 1527 1530 1533 1535 1538 1540 1542 1544 1545 1547 1548 1550 1551 1552 1553 1554 1556 1557 1558 1559 1560 1561 1561 1562 1562 1563 1563 1564 1564 1565
1482 1485 1488 1490 1494 1498 1501 1505 1509 1512 1516 1519 1522 1525 1528 1531 1533 1536 1538 1540 1542 1544 1545 1547 1548 1549 1551 1552 1553 1554 1556 1557 1558 1559 1560 1561 1561 1562 1562 1563 1563 1563 1563
1480 1483 1485 1488 1492 1496 1499 1503 1507 1510 1513 1516 1519 1523 1526 1529 1532 1534 1537 1538 1540 1542 1544 1546 1547 1548 1549 1550 1552 1553 1554 1555 1556 1558 1559 1559 1560 1561 1561 1562 1562 1562 1562
1478 1481 1484 1487 1491 1494 1497 1501 1505 1508 1511 1514 1518 1521 1524 1527 1530 1532 1535 1537 1539 1541 1543 1544 1545 1547 1548 1549 1550 1551 1552 1553 1554 1556 1557 1558 1558 1559 1559 1560 1560 1561 1560
1478 1480 1482 1486 1489 1493 1496 1499 1502 1506 1509 1512 1515 1518 1522 1525 1528 1530 1532 1535 1537 1539 1540 1542 1543 1545 1546 1547 1548 1549 1550 1551 1552 1554 1555 1556 1556 1557 1558 1558 1558 1559 1559
1477 1479 1482 1485 1488 1492 1495 1498 1501 1504 1507 1510 1513 1516 1519 1522 1525 1527 1530 1532 1534 1536 1538 1540 1541 1542 1544 1545 1546 1547 1548 1549 1550 1551 1552 1553 1554 1555 1555 1556 1556 1556 1557
1475 1477 1480 1484 1487 1490 1493 1496 1499 1501 1504 1507 1510 1513 1516 1519 1522 1524 1527 1529 1531 1533 1535 1536 1538 1539 1540 1541 1543 1544 1545 1546 1547 1548 1549 1550 1551 1552 1553 1553 1554 1554 1554
1473 1476 1479 1481 1484 1487 1490 1493 1496 1499 1502 1505 1508 1510 1513 1515 1518 1521 1523 1526 1528 1530 1531 1532 1534 1535 1536 1538 1539 1541 1542 1543 1544 1545 1546 1547 1548 1549 1550 1550 1551 1551 1551
1471 1474 1476 1479 1481 1484 1487 1490 1493 1496 1499 1502 1505 1507 1510 1512 1515 1518 1520 1522 1524 1526 1528 1529 1530 1531 1533 1534 1536 1537 1538 1539 1541 1542 1543 1544 1545 1545 1546 1546 1547 1547 1547
1469 1471 1474 1476 1479 1481 1485 1487 1490 1493 1496 1499 1501 1504 1507 1510 1513 1515 1517 1520 1521 1523 1524 1526 1527 1528 1529 1530 1532 1533 1535 1536 1537 1538 1539 1540 1541 1542 1542 1543 1543 1543 1543
1469 1470 1472 1475 1477 1479 1482 1485 1487 1490 1493 1495 1498 1500 1504 1506 1509 1511 1513 1515 1517 1519 1520 1522 1523 1524 1524 1526 1527 1529 1530 1531 1532 1534 1535 1536 1536 1537 1538 1538 1538 1538 1538
1468 1470 1472 1473 1475 1478 1480 1482 1485 1488 1490 1492 1494 1497 1500 1502 1504 1507 1509 1511 1512 1513 1515 1516 1517 1518 1520 1521 1522 1524 1525 1526 1527 1528 1530 1530 1531 1532 1532 1532 1532 1532 1532
1469 1470 1471 1473 1475 1477 1479 1481 1483 1486 1488 1490 1493 1495 1497 1499 1501 1503 1504 1506 1507 1508 1510 1510 1512 1513 1514 1516 1517 1519 1519 1520 1521 1523 1524 1524 1525 1526 1526 1526 1526 1525 1525
1470 1470 1471 1472 1474 1476 1478 1480 1481 1484 1486 1489 1492 1493 1494 1496 1497 1498 1499 1501 1502 1503 1504 1505 1507 1508 1509 1511 1512 1513 1514 1514 1515 1516 1518 1519 1519 1520 1520 1520 1519 1518 1518
1472 1472 1472 1473 1475 1477 1479 1480 1481 1483 1485 1487 1489 1491 1492 1493 1494 1495 1495 1496 1497 1499 1500 1501 1502 1503 1504 1506 1507 1508 1509 1509 1509 1510 1512 1512 1513 1513 1513 1512 1511 1510 1509
1475 1475 1475 1475 1476 1478 1479 1480 1481 1483 1485 1486 1487 1488 1489 1490 1491 1492 1493 1493 1493 1495 1496 1496 1497 1498 1499 1501 1503 1503 1504 1504 1504 1504 1505 1506 1506 1506 1505 1505 1504 1502 1502
1478 1478 1477 1478 1480 1480 1481 1480 1482 1484 1485 1486 1485 1486 1487 1488 1489 1489 1490 1490 1491 1492 1492 1493 1493 1494 1495 1496 1497 1497 1498 1499 1499 1499 1499 1499 1499 1498 1497 1497 1496 1495 1494
1481 1481 1481 1482 1483 1483 1483 1483 1484 1485 1486 1486 1486 1486 1487 1487 1488 1488 1488 1488 1489 1489 1490 1490 1490 1490 1490 1491 1492 1492 1493 1493 1493 1493 1493 1492 1492 1491 1489 1489 1488 1487 1486
1484 1485 1485 1485 1486 1487 1487 1487 1487 1487 1487 1486 1487 1487 1487 1487 1487 1488 1488 1488 1488 1487 1487 1487 1487 1488 1488 1488 1488 1488 1488 1488 1488 1487 1486 1486 1485 1484 1482 1481 1480 1479 1478
1488 1488 1488 1489 1490 1490 1490 1490 1489 1489 1488 1487 1487 1488 1488 1488 1487 1487 1487 1487 1487 1487 1486 1486 1486 1485 1485 1485 1485 1485 1484 1484 1483 1482 1481 1480 1478 1477 1475 1474 1473 1472 1470
1491 1491 1492 1492 1493 1493 1493 1492 1492 1491 1490 1489 1489 1489 1489 1488 1488 1487 1487 1486 1486 1485 1485 1484 1484 1483 1484 1483 1482 1481 1481 1480 1479 1478 1476 1475 1473 1471 1469 1467 1466 1465 1463